Location: Heidgraben
(53.7081°N, 9.6576°E)
Time: 00:12:28
(UTC+00:00)

Cosmos 2333 Rocket - Pass Details

Date: 02 November 2020
Orbit: 841 x 861 km, 70.8° (Epoch: 28 November)

Event Time Altitude Azimuth Distance (km) Brightness Sun altitude
Exits shadow 01:27:29 14° 11° (NNE) 2,225 4.8 -42.2°
Drops below altitude 10° 01:29:38 10° 34° (NNE) 2,479 5.2 -41.9°
Sets 01:33:26 0° 59° (ENE) 3,410 6.2 -41.5°
